Location: Bagnara
(41.0500°N, 14.7833°E)
Time: 16:21:35
(UTC+00:00)

FENGYUN 3A - Pass Details

Date: 20 June 2021
Orbit: 824 x 835 km, 98.5° (Epoch: 31 July)

Event Time Altitude Azimuth Distance (km) Brightness Sun altitude
Rises 02:49:09 0° 16° (NNE) 3,388 7.9 -6.8°
Reaches altitude 10° 02:51:32 10° 20° (NNE) 2,452 7.2 -6.5°
Maximum altitude 02:56:56 63° 101° (E) 930 4.2 -5.7°
Drops below altitude 10° 03:02:17 10° 182° (S) 2,438 5.7 -4.9°
Sets 03:04:40 0° 186° (S) 3,368 6.4 -4.5°
